Torna al catalogo

STARLINK-4731

AttivoComunicazioniVLEO
NORAD 53703·PAYLOAD·🇺🇸 United States

Lanciato Sep 5, 2022 da Cape Canaveral Space Force Station

Loading…

Prossimi Passaggi (prossime 24 ore)

TLE

AggiornatoSource: CelesTrak SupGP

Epoca: Sep 14, 2026, 14:47 UTC

1 53703C 22107D   26257.61645833  .00283320  00000+0  86170-2 0  2576
2 53703  53.1593 112.9587 0001196 103.6287 120.3018 15.33333958    12

Traccia STARLINK-4731 in tempo reale con AllMySat

Download on the App Store